Regional Weather Roundup
Issued by NWS

Home | Current Version | Previous Version | Text Only | Print | Product List | Glossary On
Versions: 1 2 3 4 5 6 7 8 9 10 11 12 13 14 15 16 17 18 19 20 21 22 23 24 25 26 27 28 29 30 31 32 33 34 35 36 37 38 39 40 41 42 43 44 45 46 47 48 49 50
575
ASUS45 KCYS 240610
RWRWY

WYOMING REGIONAL WEATHER ROUNDUP
NATIONAL WEATHER SERVICE CHEYENNE WY
1200 AM MDT TUE MAY 24 2016

NOTE:  "FAIR" INDICATES FEW OR NO CLOUDS BELOW 12,000 FEET
WITH NO SIGNIFICANT WEATHER AND/OR OBSTRUCTIONS TO VISIBILITY.

WYZ001-240700-
YELLOWSTONE NATIONAL PARK

CITY           SKY/WX    TMP DP  RH WIND       PRES   REMARKS
LK YELLOWSTONE   N/A     29  25  85 CALM      29.97S
6HR MIN TEMP:  29; 6HR MAX TEMP:  44;

W YELLOWSTONE  NOT AVBL

$$
WYZ002>013-054>058-071-098>099-240700-
NORTHERN WYOMING

CITY           SKY/WX    TMP DP  RH WIND       PRES   REMARKS
JACKSON        CLOUDY    39  34  81 CALM      29.94S
CODY           FAIR      43  34  70 CALM      29.88S
GREYBULL       FAIR      50  31  48 SW3       29.84R
6HR MIN TEMP:  50; 6HR MAX TEMP:  65;

WORLAND        FAIR      43  32  65 S10       29.85R
6HR MIN TEMP:  42; 6HR MAX TEMP:  66;

SHERIDAN       FAIR      43  35  73 CALM      29.88S
6HR MIN TEMP:  42; 6HR MAX TEMP:  62;

BUFFALO        FAIR      46  32  58 NW7       29.91R
6HR MIN TEMP:  45; 6HR MAX TEMP:  63;

GILLETTE       FAIR      34  30  85 S3        29.88S
6HR MIN TEMP:  34; 6HR MAX TEMP:  67;

HULETT         FAIR      46  32  57 E7        29.89S
NEWCASTLE      FAIR      52  23  32 CALM      29.86S

$$
WYZ014>020-022>026-101>103-240700-
CENTRAL WYOMING

CITY           SKY/WX    TMP DP  RH WIND       PRES   REMARKS
BIG PINEY      FAIR      37  30  75 CALM      29.98S
6HR MIN TEMP:  35; 6HR MAX TEMP:  56;

PINEDALE       FAIR      32  32 100 NW5       29.98F WCI  27
DUBOIS         MOCLDY    36  25  64 W6        29.95F WCI  31
LANDER         MOCLDY    47  28  47 CALM      29.90R
6HR MIN TEMP:  46; 6HR MAX TEMP:  62;

RIVERTON       FAIR      46  27  47 SW7       29.91R
6HR MIN TEMP:  46; 6HR MAX TEMP:  63;

CASPER         FAIR      39  28  64 W5        29.90S
6HR MIN TEMP:  39; 6HR MAX TEMP:  60;

DOUGLAS        FAIR      40  32  73 SE6       29.92R
6HR MIN TEMP:  39; 6HR MAX TEMP:  67;


$$
WYZ021-027>030-104>119-240700-
SOUTHERN WYOMING

CITY           SKY/WX    TMP DP  RH WIND       PRES   REMARKS
EVANSTON       CLOUDY    45  29  53 E6        29.96S
6HR MIN TEMP:  44; 6HR MAX TEMP:  54;

KEMMERER         N/A     37  28  70 N5        29.98S WCI  34
FORT BRIDGER   PTCLDY    43  34  70 S10       30.00S
ROCK SPRINGS   CLOUDY    46  34  62 NE5       29.95F
6HR MIN TEMP:  45; 6HR MAX TEMP:  54;

DIXON          FAIR      44  33  65 NE6       30.00S
RAWLINS        FAIR      38  31  76 CALM      29.98F
6HR MIN TEMP:  37; 6HR MAX TEMP:  55;

SARATOGA       FAIR      43  32  65 SW10      30.00F
LARAMIE        FAIR      37  30  75 SE6       30.00F WCI  32
6HR MIN TEMP:  37; 6HR MAX TEMP:  60;

CHEYENNE       FAIR      45  38  76 CALM      29.98R
6HR MIN TEMP:  44; 6HR MAX TEMP:  59;

TORRINGTON     FAIR      47  41  80 E6        29.89F
6HR MIN TEMP:  46; 6HR MAX TEMP:  62;

PINE BLUFFS    FAIR      37  36  93 W6        29.96R WCI  33

$$




USA.gov is the U.S. government's official web portal to all federal, state and local government web resources and services.